| time (UTC) | temp C | wind direction | speed KPH | gust KPH | rain 1hr cm | rain 24hr cm | rain mn cm | humidity % | barometer mb |
| 20260904113015 | 24 | 219 | 6.4 | 16.1 | 0.00 | 0.33 | 0.03 | 68 | 1015.0 |
| 20260904111513 | 25 | 224 | 12.9 | 22.5 | 0.00 | 0.33 | 0.03 | 65 | 1015.3 |
| 20260904110011 | 25 | 215 | 4.8 | 24.1 | 0.00 | 0.33 | 0.03 | 67 | 1015.4 |
| 20260904104510 | 24 | 213 | 14.5 | 30.6 | 0.00 | 0.33 | 0.03 | 65 | 1015.7 |
| 20260904103736 | 25 | 225 | 9.7 | 24.1 | 0.03 | 0.33 | 0.03 | 68 | 1017.6 |
| 20260904103006 | 25 | 240 | 17.7 | 27.4 | 0.03 | 0.33 | 0.03 | 67 | 1016.0 |
| 20260904101505 | 23 | 220 | 4.8 | 20.9 | 0.03 | 0.33 | 0.03 | 72 | 1016.2 |
| 20260904100059 | 23 | 217 | 8.0 | 17.7 | 0.03 | 0.33 | 0.03 | 74 | 1016.4 |
| 20260904094557 | 22 | 211 | 8.0 | 27.4 | 0.03 | 0.33 | 0.03 | 76 | 1016.8 |
| 20260904093615 | 22 | 203 | 8.0 | 14.5 | 0.00 | 0.30 | 0.00 | 79 | 1018.5 |
| 20260904093100 | 22 | 213 | 9.7 | 16.1 | 0.00 | 0.30 | 0.00 | 78 | 1016.9 |
| 20260904091547 | 21 | 217 | 8.0 | 17.7 | 0.00 | 0.30 | 0.00 | 79 | 1017.2 |
| 20260904090043 | 20 | 188 | 4.8 | 12.9 | 0.00 | 0.30 | 0.00 | 82 | 1017.5 |
| 20260904084539 | 19 | 204 | 3.2 | 11.3 | 0.00 | 0.30 | 0.00 | 84 | 1017.5 |
| 20260904083646 | 18 | 180 | 3.2 | 4.8 | 0.00 | 0.30 | 0.00 | 86 | 1019.2 |
| 20260904083037 | 18 | 207 | 3.2 | 8.0 | 0.00 | 0.30 | 0.00 | 85 | 1017.8 |
| 20260904081530 | 18 | 196 | 3.2 | 6.4 | 0.00 | 0.30 | 0.00 | 86 | 1018.0 |
| 20260904080028 | 17 | 196 | 3.2 | 6.4 | 0.00 | 0.30 | 0.00 | 86 | 1018.2 |
| 20260904074526 | 17 | 194 | 3.2 | 8.0 | 0.00 | 0.30 | 0.00 | 87 | 1018.2 |
| 20260904073617 | 17 | 203 | 4.8 | 6.4 | 0.00 | 0.30 | 0.00 | 89 | 1019.3 |
| 20260904073046 | 17 | 195 | 3.2 | 6.4 | 0.00 | 0.30 | 0.00 | 88 | 1018.1 |
| 20260904071522 | 16 | 193 | 3.2 | 6.4 | 0.00 | 0.30 | 0.00 | 89 | 1018.3 |
| 20260904070019 | 16 | 205 | 3.2 | 6.4 | 0.00 | 0.30 | 0.00 | 90 | 1018.4 |
| 20260904064520 | 16 | 194 | 3.2 | 8.0 | 0.00 | 0.30 | 0.00 | 91 | 1018.2 |
| 20260904063547 | 16 | 180 | 1.6 | 4.8 | 0.00 | 0.30 | 0.00 | 92 | 1019.3 |
| 20260904063016 | 16 | 215 | 1.6 | 4.8 | 0.00 | 0.30 | 0.00 | 92 | 1018.3 |
| 20260904061514 | 15 | 187 | 0.0 | 3.2 | 0.00 | 0.30 | 0.00 | 92 | 1018.4 |
| 20260904060013 | 15 | 213 | 1.6 | 6.4 | 0.00 | 0.30 | 0.00 | 92 | 1018.2 |
| 20260904054513 | 15 | 202 | 1.6 | 6.4 | 0.00 | 0.30 | 0.00 | 93 | 1018.3 |
| 20260904053623 | 15 | 203 | 1.6 | 3.2 | 0.00 | 0.30 | 0.00 | 92 | 1019.3 |
| 20260904053011 | 15 | 188 | 0.0 | 4.8 | 0.00 | 0.30 | 0.00 | 93 | 1018.5 |
| 20260904051513 | 15 | 177 | 1.6 | 4.8 | 0.00 | 0.30 | 0.00 | 93 | 1018.5 |
| 20260904050009 | 15 | 190 | 1.6 | 4.8 | 0.00 | 0.30 | 0.00 | 93 | 1018.5 |
| 20260904044510 | 15 | 194 | 1.6 | 4.8 | 0.00 | 0.30 | 0.00 | 93 | 1018.4 |
| 20260904043713 | 15 | 180 | 3.2 | 3.2 | 0.00 | 0.30 | 0.00 | 93 | 1019.4 |
| 20260904043008 | 15 | 182 | 1.6 | 4.8 | 0.00 | 0.30 | 0.00 | 93 | 1018.6 |
| 20260904041506 | 14 | 181 | 0.0 | 0.0 | 0.00 | 0.30 | 0.00 | 92 | 1018.6 |
| 20260904040007 | 13 | 179 | 0.0 | 0.0 | 0.00 | 0.30 | 0.00 | 92 | 1018.8 |
| 20260904034505 | 13 | 179 | 0.0 | 0.0 | 0.00 | 0.30 | 0.00 | 92 | 1018.9 |
| 20260904033005 | 13 | 179 | 0.0 | 0.0 | 0.00 | 0.30 | 0.00 | 91 | 1019.0 |
| 20260904031503 | 13 | 179 | 0.0 | 0.0 | 0.00 | 0.30 | 0.00 | 91 | 1019.1 |
| 20260904030658 | 13 | 0.0 | 0.0 | 0.00 | 0.30 | 0.00 | 91 | 1020.2 | |
| 20260904030002 | 13 | 179 | 0.0 | 0.0 | 0.00 | 0.30 | 0.00 | 91 | 1019.2 |
| 20260904024502 | 13 | 179 | 0.0 | 0.0 | 0.00 | 0.30 | 0.00 | 91 | 1019.2 |
| 20260904023001 | 13 | 179 | 0.0 | 0.0 | 0.00 | 0.30 | 0.00 | 92 | 1019.2 |
| 20260904021503 | 13 | 179 | 0.0 | 0.0 | 0.00 | 0.30 | 0.00 | 92 | 1019.3 |
| 20260904020611 | 13 | 0.0 | 0.0 | 0.00 | 0.30 | 0.00 | 91 | 1020.5 | |
| 20260904020123 | 13 | 179 | 0.0 | 0.0 | 0.00 | 0.30 | 0.00 | 91 | 1019.5 |
| 20260904014646 | 13 | 179 | 0.0 | 0.0 | 0.00 | 0.30 | 0.00 | 91 | 1019.4 |
| 20260904013108 | 13 | 179 | 0.0 | 0.0 | 0.00 | 0.30 | 0.00 | 91 | 1019.3 |
| 20260904011605 | 13 | 179 | 0.0 | 0.0 | 0.00 | 0.30 | 0.00 | 91 | 1019.3 |
| 20260904010543 | 14 | 0.0 | 0.0 | 0.00 | 0.30 | 0.00 | 91 | 1020.7 | |
| 20260904010058 | 14 | 179 | 0.0 | 0.0 | 0.00 | 0.30 | 0.00 | 91 | 1019.4 |
| 20260904004553 | 14 | 179 | 0.0 | 0.0 | 0.00 | 0.30 | 0.00 | 91 | 1019.5 |
| 20260904003059 | 14 | 179 | 0.0 | 1.6 | 0.00 | 0.30 | 0.00 | 91 | 1019.6 |
| 20260904001549 | 15 | 179 | 0.0 | 0.0 | 0.00 | 0.30 | 0.00 | 91 | 1019.6 |
| 20260904000513 | 15 | 0.0 | 0.0 | 0.00 | 0.30 | 0.00 | 92 | 1021.2 | |
| 20260904000046 | 15 | 162 | 0.0 | 0.0 | 0.00 | 0.30 | 0.00 | 92 | 1019.8 |
| 20260903234545 | 15 | 28 | 0.0 | 0.0 | 0.00 | 0.30 | 0.00 | 91 | 1019.8 |
| 20260903233044 | 15 | 28 | 0.0 | 0.0 | 0.00 | 0.30 | 0.00 | 92 | 1020.1 |
| 20260903231543 | 15 | 28 | 0.0 | 0.0 | 0.00 | 0.30 | 0.00 | 92 | 1020.1 |
| 20260903230544 | 15 | 0.0 | 0.0 | 0.00 | 0.30 | 0.00 | 92 | 1021.6 | |
| 20260903230057 | 15 | 28 | 0.0 | 0.0 | 0.00 | 0.30 | 0.00 | 92 | 1020.2 |
| 20260903224541 | 15 | 28 | 0.0 | 0.0 | 0.00 | 0.30 | 0.00 | 92 | 1020.1 |
| 20260903223040 | 15 | 28 | 0.0 | 0.0 | 0.00 | 0.30 | 0.00 | 91 | 1019.9 |
| 20260903221540 | 15 | 28 | 0.0 | 0.0 | 0.00 | 0.30 | 0.00 | 91 | 1020.0 |
| 20260903220515 | 15 | 0.0 | 0.0 | 0.00 | 0.30 | 0.30 | 91 | 1021.3 | |
| 20260903220040 | 15 | 28 | 0.0 | 0.0 | 0.00 | 0.30 | 0.00 | 91 | 1020.0 |
| 20260903214543 | 15 | 28 | 0.0 | 0.0 | 0.00 | 0.30 | 0.30 | 91 | 1019.8 |
| 20260903213039 | 15 | 28 | 0.0 | 0.0 | 0.00 | 0.30 | 0.30 | 91 | 1020.0 |
| 20260903211535 | 15 | 28 | 0.0 | 0.0 | 0.00 | 0.30 | 0.30 | 91 | 1020.4 |
| 20260903210627 | 16 | 0.0 | 0.0 | 0.00 | 0.30 | 0.30 | 91 | 1021.4 | |
| 20260903210035 | 15 | 28 | 0.0 | 0.0 | 0.00 | 0.30 | 0.30 | 91 | 1020.2 |
| 20260903204535 | 15 | 28 | 0.0 | 0.0 | 0.00 | 0.30 | 0.30 | 91 | 1020.3 |
| 20260903203034 | 15 | 28 | 0.0 | 0.0 | 0.00 | 0.30 | 0.30 | 91 | 1020.1 |
| 20260903201535 | 16 | 28 | 0.0 | 0.0 | 0.00 | 0.30 | 0.30 | 91 | 1020.1 |
| 20260903200556 | 16 | 0.0 | 0.0 | 0.00 | 0.30 | 0.30 | 91 | 1021.2 | |
| 20260903200038 | 16 | 28 | 0.0 | 0.0 | 0.00 | 0.30 | 0.30 | 91 | 1020.1 |
| 20260903194534 | 16 | 28 | 0.0 | 0.0 | 0.00 | 0.30 | 0.30 | 91 | 1020.0 |
| 20260903193034 | 16 | 28 | 0.0 | 0.0 | 0.00 | 0.30 | 0.30 | 90 | 1020.1 |
| 20260903191531 | 16 | 28 | 0.0 | 0.0 | 0.00 | 0.30 | 0.30 | 90 | 1020.2 |
| 20260903190537 | 16 | 0.0 | 0.0 | 0.00 | 0.30 | 0.30 | 90 | 1020.9 | |
| 20260903190030 | 16 | 28 | 0.0 | 0.0 | 0.00 | 0.30 | 0.30 | 90 | 1020.3 |
| 20260903184530 | 16 | 28 | 0.0 | 1.6 | 0.00 | 0.30 | 0.30 | 90 | 1020.3 |
| 20260903183030 | 16 | 28 | 0.0 | 0.0 | 0.00 | 0.30 | 0.30 | 90 | 1020.1 |
| 20260903181529 | 16 | 28 | 0.0 | 0.0 | 0.00 | 0.30 | 0.30 | 90 | 1020.0 |
| 20260903180508 | 16 | 0.0 | 0.0 | 0.00 | 0.30 | 0.30 | 90 | 1020.4 | |
| 20260903180048 | 16 | 28 | 0.0 | 0.0 | 0.00 | 0.30 | 0.30 | 90 | 1019.9 |
| 20260903174528 | 16 | 28 | 0.0 | 0.0 | 0.05 | 0.30 | 0.30 | 89 | 1019.7 |
| 20260903173032 | 16 | 28 | 0.0 | 1.6 | 0.05 | 0.30 | 0.30 | 90 | 1019.6 |
| 20260903171527 | 16 | 28 | 0.0 | 3.2 | 0.05 | 0.30 | 0.30 | 89 | 1019.7 |
| 20260903170538 | 16 | 0.0 | 0.0 | 0.05 | 0.30 | 0.30 | 88 | 1020.7 | |
| 20260903170034 | 16 | 28 | 0.0 | 1.6 | 0.05 | 0.30 | 0.30 | 89 | 1020.0 |
| 20260903164530 | 16 | 28 | 0.0 | 3.2 | 0.00 | 0.25 | 0.25 | 88 | 1020.4 |
| 20260903163024 | 16 | 28 | 0.0 | 1.6 | 0.00 | 0.25 | 0.25 | 88 | 1020.4 |
| 20260903161528 | 16 | 28 | 0.0 | 3.2 | 0.05 | 0.25 | 0.25 | 87 | 1020.3 |
| 20260903160510 | 17 | 0.0 | 1.6 | 0.15 | 0.25 | 0.25 | 87 | 1021.2 | |
| 20260903160025 | 16 | 34 | 0.0 | 1.6 | 0.13 | 0.25 | 0.25 | 87 | 1020.7 |
| 20260903154524 | 16 | 154 | 0.0 | 1.6 | 0.15 | 0.25 | 0.25 | 87 | 1020.7 |
| 20260903153021 | 17 | 154 | 0.0 | 4.8 | 0.18 | 0.25 | 0.25 | 86 | 1020.0 |
| 20260903151520 | 17 | 218 | 0.0 | 3.2 | 0.15 | 0.18 | 0.18 | 86 | 1020.9 |
| 20260903150441 | 17 | 0.0 | 1.6 | 0.08 | 0.13 | 0.13 | 85 | 1021.6 | |
| 20260903150020 | 17 | 218 | 0.0 | 4.8 | 0.08 | 0.13 | 0.13 | 85 | 1020.8 |
| 20260903144522 | 17 | 218 | 0.0 | 4.8 | 0.05 | 0.10 | 0.10 | 84 | 1020.5 |
| 20260903143021 | 18 | 210 | 0.0 | 3.2 | 0.05 | 0.08 | 0.08 | 82 | 1020.4 |
| 20260903141523 | 18 | 210 | 1.6 | 4.8 | 0.05 | 0.05 | 0.05 | 81 | 1020.5 |
| 20260903140510 | 19 | 0.0 | 1.6 | 0.05 | 0.05 | 0.05 | 79 | 1021.6 | |
| 20260903140017 | 18 | 210 | 0.0 | 3.2 | 0.05 | 0.05 | 0.05 | 80 | 1020.4 |
| 20260903134517 | 19 | 210 | 0.0 | 3.2 | 0.05 | 0.05 | 0.05 | 77 | 1020.4 |
| 20260903133017 | 20 | 238 | 1.6 | 8.0 | 0.00 | 0.00 | 0.00 | 72 | 1020.9 |
| 20260903131515 | 21 | 257 | 3.2 | 9.7 | 0.00 | 0.00 | 0.00 | 66 | 1020.3 |
| 20260903130609 | 21 | 248 | 1.6 | 3.2 | 0.00 | 0.00 | 0.00 | 65 | 1021.7 |
| 20260903130014 | 21 | 204 | 4.8 | 16.1 | 0.00 | 0.00 | 0.00 | 64 | 1020.3 |
| 20260903124513 | 21 | 269 | 1.6 | 19.3 | 0.00 | 0.00 | 0.00 | 64 | 1020.3 |
| 20260903123023 | 21 | 223 | 6.4 | 16.1 | 0.00 | 0.00 | 0.00 | 64 | 1020.3 |
| 20260903121514 | 21 | 265 | 1.6 | 17.7 | 0.00 | 0.00 | 0.00 | 65 | 1020.4 |
| 20260903120536 | 22 | 225 | 6.4 | 12.9 | 0.00 | 0.00 | 0.00 | 62 | 1021.9 |
| 20260903120012 | 22 | 195 | 3.2 | 16.1 | 0.00 | 0.00 | 0.00 | 63 | 1020.6 |
| 20260903114511 | 22 | 209 | 9.7 | 24.1 | 0.00 | 0.00 | 0.00 | 60 | 1020.4 |